When you browse on this site, cookies collect data to enhance your experience and personalize the content and advertising you see.
Visit our Privacy Policy to learn more. By continuing to use the site, you agree to this use of cookies and data.
  • In France
  • List of Countries
  • For 7 days
  • Water Temperature
  • Weather Map
  • Weather Widgets
  • user-avatar
    Login

    Hourly Weather Weifang

    Today, 18 September, Wednesday

    Time Temperature Precipitation Wind Pressure Humidity
    00:00 +20°C° 0 mm 3 mps 761 mmHg 66%
    01:00 +20°C° 0 mm 3 mps 762 mmHg 72%
    02:00 +19°C° 0 mm 4 mps 762 mmHg 78%
    03:00 +19°C° 0 mm 4 mps 763 mmHg 72%
    04:00 +20°C° 0 mm 4 mps 763 mmHg 66%
    05:00 +20°C° 0 mm 4 mps 763 mmHg 60%
    06:00 +20°C° 0 mm 5 mps 764 mmHg 54%
    07:00 +20°C° 0 mm 6 mps 765 mmHg 48%
    08:00 +21°C° 0 mm 6 mps 765 mmHg 42%
    09:00 +22°C° 0 mm 6 mps 766 mmHg 40%
    10:00 +23°C° 0 mm 6 mps 766 mmHg 39%
    11:00 +23°C° 0 mm 6 mps 766 mmHg 37%
    12:00 +24°C° 0 mm 6 mps 766 mmHg 36%
    13:00 +24°C° 0 mm 6 mps 765 mmHg 34%
    14:00 +24°C° 0 mm 6 mps 765 mmHg 32%
    15:00 +23°C° 0 mm 6 mps 765 mmHg 36%
    16:00 +22°C° 0 mm 5 mps 765 mmHg 39%
    17:00 +21°C° 0 mm 5 mps 765 mmHg 42%
    18:00 +19°C° 0 mm 4 mps 765 mmHg 47%
    19:00 +17°C° 0 mm 3 mps 766 mmHg 52%
    20:00 +15°C° 0 mm 2 mps 766 mmHg 57%
    21:00 +15°C° 0 mm 1 mps 766 mmHg 59%
    22:00 +14°C° 0 mm 1 mps 765 mmHg 60%
    23:00 +12°C° 0 mm 0 mps 765 mmHg 62%

    Tomorrow, 19 September, Thursday

    Time Temperature Precipitation Wind Pressure Humidity
    00:00 +13°C° 0 mm 1 mps 765 mmHg 62%
    01:00 +13°C° 0 mm 1 mps 765 mmHg 62%
    02:00 +13°C° 0 mm 1 mps 765 mmHg 62%
    03:00 +13°C° 0 mm 1 mps 765 mmHg 63%
    04:00 +13°C° 0 mm 1 mps 765 mmHg 64%
    05:00 +13°C° 0 mm 1 mps 765 mmHg 65%
    06:00 +14°C° 0 mm 1 mps 765 mmHg 60%
    07:00 +16°C° 0 mm 1 mps 765 mmHg 55%
    08:00 +19°C° 0 mm 1 mps 765 mmHg 51%
    09:00 +21°C° 0 mm 1 mps 764 mmHg 45%
    10:00 +22°C° 0 mm 0 mps 764 mmHg 38%
    11:00 +24°C° 0 mm 0 mps 764 mmHg 32%
    12:00 +25°C° 0 mm 0 mps 763 mmHg 30%
    13:00 +26°C° 0 mm 0 mps 763 mmHg 27%
    14:00 +29°C° 0 mm 1 mps 762 mmHg 25%
    15:00 +28°C° 0 mm 1 mps 762 mmHg 28%
    16:00 +27°C° 0 mm 1 mps 761 mmHg 30%
    17:00 +27°C° 0 mm 1 mps 761 mmHg 33%
    18:00 +25°C° 0 mm 1 mps 761 mmHg 34%
    19:00 +23°C° 0 mm 1 mps 761 mmHg 36%
    20:00 +22°C° 0 mm 1 mps 762 mmHg 37%
    21:00 +21°C° 0 mm 1 mps 761 mmHg 38%
    22:00 +21°C° 0 mm 1 mps 761 mmHg 40%
    23:00 +20°C° 0 mm 1 mps 761 mmHg 42%

    Day after tomorrow, 20 September, Friday

    Time Temperature Precipitation Wind Pressure Humidity
    00:00 +20°C° 0 mm 1 mps 761 mmHg 42%
    01:00 +20°C° 0 mm 1 mps 761 mmHg 42%
    02:00 +20°C° 0 mm 1 mps 760 mmHg 42%
    03:00 +20°C° 0 mm 1 mps 760 mmHg 42%
    04:00 +20°C° 0 mm 1 mps 760 mmHg 42%
    05:00 +20°C° 0 mm 1 mps 760 mmHg 42%
    06:00 +21°C° 0 mm 1 mps 760 mmHg 41%
    07:00 +22°C° 0 mm 1 mps 760 mmHg 41%
    08:00 +23°C° 0 mm 1 mps 761 mmHg 40%
    09:00 +24°C° 0 mm 1 mps 760 mmHg 36%
    10:00 +26°C° 0 mm 1 mps 760 mmHg 33%
    11:00 +27°C° 0 mm 1 mps 760 mmHg 30%
    12:00 +28°C° 0 mm 1 mps 759 mmHg 28%
    13:00 +29°C° 0 mm 1 mps 759 mmHg 26%
    14:00 +29°C° 0 mm 1 mps 759 mmHg 24%
    15:00 +28°C° 0 mm 2 mps 759 mmHg 27%
    16:00 +27°C° 0 mm 2 mps 759 mmHg 30%
    17:00 +27°C° 0 mm 3 mps 759 mmHg 33%
    18:00 +25°C° 0 mm 3 mps 759 mmHg 41%
    19:00 +24°C° 0 mm 3 mps 759 mmHg 48%
    20:00 +21°C° 0 mm 3 mps 760 mmHg 55%
    21:00 +20°C° 0 mm 2 mps 760 mmHg 57%
    22:00 +20°C° 0 mm 2 mps 760 mmHg 59%
    23:00 +20°C° 0 mm 1 mps 760 mmHg 60%

    21 September, Saturday

    Time Temperature Precipitation Wind Pressure Humidity
    00:00 +19°C° 0 mm 2 mps 760 mmHg 62%
    01:00 +19°C° 0 mm 2 mps 760 mmHg 63%
    02:00 +19°C° 0 mm 2 mps 760 mmHg 64%
    03:00 +19°C° 0 mm 2 mps 760 mmHg 64%
    04:00 +19°C° 0 mm 2 mps 760 mmHg 64%
    05:00 +19°C° 0 mm 3 mps 760 mmHg 64%
    06:00 +20°C° 0 mm 4 mps 760 mmHg 59%
    07:00 +22°C° 0 mm 5 mps 761 mmHg 55%
    08:00 +24°C° 0 mm 6 mps 761 mmHg 50%
    09:00 +26°C° 0 mm 6 mps 761 mmHg 44%
    10:00 +27°C° 0 mm 7 mps 761 mmHg 37%
    11:00 +29°C° 0 mm 7 mps 761 mmHg 31%
    12:00 +29°C° 0 mm 7 mps 760 mmHg 30%
    13:00 +29°C° 0 mm 7 mps 760 mmHg 30%
    14:00 +29°C° 0 mm 7 mps 760 mmHg 29%
    15:00 +28°C° 0 mm 7 mps 760 mmHg 37%
    16:00 +27°C° 0 mm 7 mps 759 mmHg 45%
    17:00 +24°C° 0 mm 6 mps 759 mmHg 53%
    18:00 +23°C° 0 mm 5 mps 760 mmHg 63%
    19:00 +21°C° 0 mm 4 mps 760 mmHg 73%
    20:00 +20°C° 0 mm 4 mps 761 mmHg 84%
    21:00 +19°C° 0.1 mm 3 mps 761 mmHg 83%
    22:00 +19°C° 0.1 mm 3 mps 761 mmHg 82%
    23:00 +19°C° 0.1 mm 2 mps 761 mmHg 82%

    22 September, Sunday

    Time Temperature Precipitation Wind Pressure Humidity
    00:00 +18°C° 0 mm 2 mps 761 mmHg 79%
    01:00 +18°C° 0 mm 2 mps 761 mmHg 77%
    02:00 +18°C° 0 mm 3 mps 760 mmHg 74%
    03:00 +18°C° 0 mm 3 mps 760 mmHg 74%
    04:00 +17°C° 0 mm 3 mps 760 mmHg 74%
    05:00 +17°C° 0 mm 3 mps 760 mmHg 74%
    06:00 +18°C° 0 mm 4 mps 761 mmHg 69%
    07:00 +20°C° 0 mm 4 mps 761 mmHg 63%
    08:00 +21°C° 0 mm 4 mps 761 mmHg 58%
    09:00 +23°C° 0 mm 5 mps 761 mmHg 51%
    10:00 +26°C° 0 mm 5 mps 761 mmHg 44%
    11:00 +28°C° 0 mm 6 mps 761 mmHg 37%
    12:00 +28°C° 0 mm 6 mps 761 mmHg 36%
    13:00 +28°C° 0 mm 6 mps 760 mmHg 35%
    14:00 +29°C° 0 mm 6 mps 760 mmHg 35%
    15:00 +27°C° 0 mm 5 mps 760 mmHg 38%
    16:00 +26°C° 0 mm 5 mps 760 mmHg 41%
    17:00 +25°C° 0 mm 4 mps 760 mmHg 44%
    18:00 +22°C° 0 mm 3 mps 761 mmHg 51%
    19:00 +20°C° 0 mm 2 mps 761 mmHg 58%
    20:00 +18°C° 0 mm 2 mps 762 mmHg 64%
    21:00 +19°C° 0 mm 1 mps 762 mmHg 65%
    22:00 +18°C° 0 mm 1 mps 762 mmHg 65%
    23:00 +18°C° 0 mm 1 mps 762 mmHg 65%

    23 September, Monday

    Time Temperature Precipitation Wind Pressure Humidity
    00:00 +18°C° 0 mm 1 mps 762 mmHg 64%
    01:00 +15°C° 0 mm 0 mps 762 mmHg 63%
    02:00 +15°C° 0 mm 0 mps 762 mmHg 62%
    03:00 +15°C° 0 mm 0 mps 762 mmHg 60%
    04:00 +16°C° 0 mm 1 mps 762 mmHg 58%
    05:00 +16°C° 0 mm 1 mps 763 mmHg 57%
    06:00 +19°C° 0 mm 1 mps 763 mmHg 52%
    07:00 +20°C° 0 mm 1 mps 763 mmHg 47%
    08:00 +22°C° 0 mm 1 mps 764 mmHg 42%
    09:00 +25°C° 0 mm 1 mps 764 mmHg 37%
    10:00 +27°C° 0 mm 1 mps 764 mmHg 32%
    11:00 +27°C° 0 mm 0 mps 764 mmHg 28%
    12:00 +28°C° 0 mm 0 mps 763 mmHg 27%
    13:00 +31°C° 0 mm 1 mps 763 mmHg 26%
    14:00 +32°C° 0 mm 1 mps 762 mmHg 25%
    15:00 +31°C° 0 mm 1 mps 762 mmHg 28%
    16:00 +30°C° 0 mm 2 mps 762 mmHg 31%
    17:00 +29°C° 0 mm 2 mps 762 mmHg 34%
    18:00 +27°C° 0 mm 2 mps 762 mmHg 39%
    19:00 +24°C° 0 mm 2 mps 762 mmHg 44%
    20:00 +21°C° 0 mm 2 mps 763 mmHg 49%
    21:00 +20°C° 0 mm 2 mps 763 mmHg 51%
    22:00 +20°C° 0 mm 2 mps 763 mmHg 53%
    23:00 +19°C° 0 mm 2 mps 763 mmHg 55%
    Show more